St. Augustine, FL

3:11 PM EDT on July 27, 2017 (GMT -0400)
Saint Augustine

Weather History for KSGJ - August, 2013

Change the Weather History Date:

Tuesday, August 27, 2013

  Actual Average Record
Temperature  
Mean Temperature 81 °F -  
Max Temperature 84 °F 85 °F 97 °F (2011)
Min Temperature 77 °F 71 °F 66 °F (1988)
Cooling Degree Days 16    
Growing Degree Days 31 (Base 50)    
Moisture  
Dew Point 71 °F    
Average Humidity 71    
Maximum Humidity 79    
Minimum Humidity 63    
Precipitation  
Precipitation 0.00 in - - ()
Sea Level Pressure  
Sea Level Pressure 30.07 in    
Wind  
Wind Speed 8 mph (East)    
Max Wind Speed 13 mph    
Max Gust Speed -    
Visibility 10 miles    
Events      
Averages and records for this station are not official NWS values.
T = Trace of Precipitation, MM = Missing Value Source: NWS Daily Summary

Daily Weather History Graph

Daily Weather History Graph

Search for Another Location

Airport or City:

Trip Planner

Search our weather history database for the weather conditions in past years. The results will help you decide how hot, cold, wet, or windy it might be!

Date:

Astronomy

Aug. 27, 2013 Rise Set
Actual Time 6:59 AM EDT 7:53 PM EDT
Civil Twilight 6:35 AM EDT 8:17 PM EDT
Nautical Twilight 6:06 AM EDT 8:46 PM EDT
Astronomical Twilight 5:36 AM EDT 9:16 PM EDT
Moon No Moon Rise 1:24 PM EDT
Length of Visible Light 13h 42m
Length of Day
12h 53m
Waning Gibbous, 57% of the Moon is Illuminated
Aug 27
Waning Gibbous
Aug 28
Last Quarter
Sep 5
New
Sep 12
First Quarter
Sep 19
Full

Hourly Weather History & Observations

Time (EDT) Temp. Heat Index Dew Point Humidity Pressure Visibility Wind Dir Wind Speed Gust Speed Precip Events Conditions
12:58 AM 81.0 °F 85.2 °F 72.0 °F 74% 30.10 in 10.0 mi East 10.4 mph - N/A   Overcast
1:58 AM 81.0 °F 84.9 °F 71.1 °F 72% 30.09 in 10.0 mi East 10.4 mph - N/A   Overcast
2:58 AM 81.0 °F 84.9 °F 71.1 °F 72% 30.08 in 10.0 mi East 12.7 mph - N/A   Overcast
3:58 AM 80.1 °F 83.6 °F 71.1 °F 74% 30.07 in 10.0 mi East 9.2 mph - N/A   Scattered Clouds
4:58 AM 79.0 °F - 71.1 °F 77% 30.06 in 10.0 mi East 5.8 mph - N/A   Clear
5:58 AM 78.1 °F - 71.1 °F 79% 30.07 in 10.0 mi Calm Calm - N/A   Mostly Cloudy
6:58 AM 78.1 °F - 71.1 °F 79% 30.07 in 10.0 mi ENE 4.6 mph - N/A   Overcast
7:31 AM 78.8 °F - 71.6 °F 78% 30.08 in 10.0 mi ENE 5.8 mph - N/A   Overcast
7:58 AM 81.0 °F 85.8 °F 73.0 °F 77% 30.08 in 10.0 mi ENE 9.2 mph - N/A   Mostly Cloudy
8:58 AM 82.0 °F 86.7 °F 72.0 °F 71% 30.09 in 10.0 mi ENE 10.4 mph - N/A   Scattered Clouds
9:58 AM 82.9 °F 87.5 °F 71.1 °F 67% 30.10 in 10.0 mi East 8.1 mph - N/A   Clear
10:58 AM 84.0 °F 89.0 °F 71.1 °F 65% 30.10 in 10.0 mi East 8.1 mph - N/A   Partly Cloudy
11:58 AM 82.9 °F 87.0 °F 70.0 °F 65% 30.10 in 10.0 mi NE 6.9 mph - N/A   Partly Cloudy
12:58 PM 84.0 °F 89.6 °F 72.0 °F 67% 30.08 in 10.0 mi ENE 9.2 mph - N/A   Scattered Clouds
1:58 PM 84.0 °F 88.4 °F 70.0 °F 63% 30.09 in 10.0 mi East 9.2 mph - N/A   Partly Cloudy
2:58 PM 84.0 °F 89.0 °F 71.1 °F 65% 30.07 in 10.0 mi East 9.2 mph - N/A   Mostly Cloudy
3:58 PM 84.0 °F 88.4 °F 70.0 °F 63% 30.05 in 10.0 mi ENE 8.1 mph - N/A   Clear
4:58 PM 84.0 °F 88.4 °F 70.0 °F 63% 30.04 in 10.0 mi East 10.4 mph - N/A   Clear
5:58 PM 82.9 °F 87.0 °F 70.0 °F 65% 30.05 in 10.0 mi NE 10.4 mph - N/A   Clear
6:58 PM 82.0 °F 85.9 °F 70.0 °F 67% 30.04 in 10.0 mi East 8.1 mph - N/A   Partly Cloudy
7:58 PM 80.1 °F 83.2 °F 70.0 °F 71% 30.04 in 10.0 mi ESE 6.9 mph - N/A   Clear
8:58 PM 78.1 °F - 70.0 °F 76% 30.05 in 10.0 mi SE 6.9 mph - N/A   Clear
9:58 PM 78.1 °F - 70.0 °F 76% 30.06 in 10.0 mi SSE 3.5 mph - N/A   Clear
10:58 PM 78.1 °F - 70.0 °F 76% 30.07 in 10.0 mi Calm Calm - N/A   Clear
11:58 PM 77.0 °F - 70.0 °F 79% 30.06 in 10.0 mi Calm Calm - N/A   Mostly Cloudy